This is the latest recevied weather packets stored in our database for station/object MIDVIL-WX. If no packets are shown the sender has not sent any weather packets the latest 10 day(s).
| Time | Temp. | Humidity | Pressure | Rain* | Wind** | Luminosity | Snow |
|---|---|---|---|---|---|---|---|
| 1777759250 | 8.33° C | 40% | 991.4 hPa | 0 mm | - | - | - |
| 1777757444 | 8.33° C | 43% | 991.2 hPa | 0 mm | - | - | - |
| 1777756526 | 8.33° C | 43% | 991.1 hPa | 0 mm | - | - | - |
| 1777755654 | 8.33° C | 43% | 991.1 hPa | 0 mm | - | - | - |
| 1777754726 | 8.33° C | 38% | 991.6 hPa | 0 mm | - | - | - |
| 1777753844 | 8.89° C | 37% | 992 hPa | 0 mm | - | - | - |
| 1777752926 | 8.33° C | 37% | 992 hPa | 0 mm | - | - | - |
| 1777752050 | 8.89° C | 37% | 992 hPa | 0 mm | - | - | - |
| 1777751126 | 8.33° C | 39% | 992.3 hPa | 0 mm | - | - | - |
| 1777750239 | 8.33° C | 39% | 992.3 hPa | 0 mm | - | - | - |
| 1777749326 | 8.33° C | 39% | 992.3 hPa | 0 mm | - | - | - |
| 1777748451 | 8.33° C | 39% | 992.3 hPa | 0 mm | - | - | - |
| 1777747525 | 7.78° C | 43% | 992.1 hPa | 0 mm | - | - | - |
| 1777746645 | 7.78° C | 44% | 992.1 hPa | 0 mm | - | - | - |
| 1777745725 | 7.78° C | 44% | 992.2 hPa | 0 mm | - | - | - |
| 1777744854 | 7.78° C | 44% | 992.2 hPa | 0 mm | - | - | - |
| 1777743925 | 7.78° C | 45% | 992.8 hPa | 0 mm | - | - | - |
| 1777743042 | 7.78° C | 40% | 992.7 hPa | 0 mm | - | - | - |
| 1777742126 | 8.33° C | 40% | 992.7 hPa | 0 mm | - | - | - |
| 1777741248 | 7.78° C | 40% | 992.7 hPa | 0 mm | - | - | - |
| 1777740326 | 7.78° C | 45% | 992.2 hPa | 0 mm | - | - | - |
| 1777739445 | 7.22° C | 43% | 991.8 hPa | 0 mm | - | - | - |
| 1777738526 | 7.22° C | 43% | 991.8 hPa | 0 mm | - | - | - |
| 1777737654 | 6.67° C | 43% | 991.8 hPa | 0 mm | - | - | - |
| 1777736726 | 6.67° C | 45% | 991.8 hPa | 0 mm | - | - | - |
* Rain latest hour (hover to see other rain measurements)
** Current wind speed in m/s (hover to see current wind gust speed)